When you browse on this site, cookies collect data to enhance your experience and personalize the content and advertising you see.
Visit our Privacy Policy to learn more. By continuing to use the site, you agree to this use of cookies and data.
  • In Hungary
  • List of Countries
  • For 7 days
  • Water Temperature
  • Satellite Maps
  • Weather Map
  • News
  • Weather Widgets
  • user-avatar
    Login

    Hourly Weather Oława

    Today, 24 June, Monday

    Time Temperature Precipitation Wind Pressure Humidity
    00:00 +15°C° 0 mm 2 mps 755 mmHg 78%
    01:00 +15°C° 0 mm 2 mps 755 mmHg 77%
    02:00 +14°C° 0 mm 1 mps 755 mmHg 80%
    03:00 +14°C° 0 mm 1 mps 755 mmHg 82%
    04:00 +14°C° 0 mm 1 mps 755 mmHg 84%
    05:00 +15°C° 0 mm 1 mps 756 mmHg 80%
    06:00 +18°C° 0 mm 1 mps 756 mmHg 76%
    07:00 +19°C° 0 mm 2 mps 756 mmHg 71%
    08:00 +21°C° 0 mm 2 mps 756 mmHg 68%
    09:00 +24°C° 0 mm 2 mps 756 mmHg 65%
    10:00 +25°C° 0 mm 3 mps 756 mmHg 63%
    11:00 +26°C° 0.1 mm 3 mps 756 mmHg 61%
    12:00 +27°C° 0.1 mm 4 mps 756 mmHg 60%
    13:00 +28°C° 0.1 mm 4 mps 756 mmHg 59%
    14:00 +28°C° 0 mm 4 mps 756 mmHg 58%
    15:00 +28°C° 0 mm 4 mps 756 mmHg 57%
    16:00 +28°C° 0 mm 4 mps 756 mmHg 57%
    17:00 +27°C° 0 mm 4 mps 756 mmHg 61%
    18:00 +26°C° 0 mm 4 mps 756 mmHg 65%
    19:00 +25°C° 0 mm 3 mps 756 mmHg 69%
    20:00 +22°C° 0 mm 3 mps 756 mmHg 72%
    21:00 +21°C° 0 mm 3 mps 757 mmHg 76%
    22:00 +19°C° 0 mm 3 mps 757 mmHg 79%
    23:00 +19°C° 0 mm 3 mps 757 mmHg 82%

    Tomorrow, 25 June, Tuesday

    Time Temperature Precipitation Wind Pressure Humidity
    00:00 +18°C° 0 mm 3 mps 757 mmHg 85%
    01:00 +18°C° 0 mm 3 mps 757 mmHg 89%
    02:00 +17°C° 0 mm 3 mps 757 mmHg 88%
    03:00 +17°C° 0 mm 2 mps 757 mmHg 87%
    04:00 +17°C° 0 mm 2 mps 756 mmHg 86%
    05:00 +18°C° 0 mm 3 mps 757 mmHg 83%
    06:00 +20°C° 0 mm 3 mps 757 mmHg 80%
    07:00 +21°C° 0 mm 3 mps 757 mmHg 77%
    08:00 +23°C° 0 mm 4 mps 757 mmHg 74%
    09:00 +26°C° 0 mm 4 mps 757 mmHg 70%
    10:00 +27°C° 0 mm 4 mps 757 mmHg 67%
    11:00 +29°C° 0 mm 4 mps 757 mmHg 63%
    12:00 +30°C° 0 mm 4 mps 757 mmHg 60%
    13:00 +32°C° 0 mm 4 mps 757 mmHg 56%
    14:00 +31°C° 0 mm 3 mps 756 mmHg 55%
    15:00 +33°C° 0 mm 3 mps 756 mmHg 54%
    16:00 +33°C° 0 mm 3 mps 756 mmHg 54%
    17:00 +31°C° 0 mm 2 mps 756 mmHg 59%
    18:00 +30°C° 0 mm 2 mps 756 mmHg 64%
    19:00 +29°C° 0 mm 1 mps 756 mmHg 69%
    20:00 +27°C° 0 mm 1 mps 756 mmHg 73%
    21:00 +26°C° 0 mm 2 mps 756 mmHg 77%
    22:00 +24°C° 0 mm 2 mps 756 mmHg 81%
    23:00 +24°C° 0 mm 2 mps 756 mmHg 85%

    Day after tomorrow, 26 June, Wednesday

    Time Temperature Precipitation Wind Pressure Humidity
    00:00 +23°C° 0 mm 2 mps 756 mmHg 88%
    01:00 +23°C° 0 mm 2 mps 756 mmHg 91%
    02:00 +21°C° 0 mm 2 mps 756 mmHg 91%
    03:00 +21°C° 0 mm 2 mps 755 mmHg 90%
    04:00 +21°C° 0 mm 2 mps 755 mmHg 90%
    05:00 +24°C° 0 mm 2 mps 755 mmHg 84%
    06:00 +25°C° 0 mm 2 mps 755 mmHg 79%
    07:00 +27°C° 0 mm 2 mps 755 mmHg 73%
    08:00 +29°C° 0 mm 2 mps 755 mmHg 67%
    09:00 +30°C° 0 mm 3 mps 755 mmHg 61%
    10:00 +33°C° 0 mm 3 mps 755 mmHg 55%
    11:00 +34°C° 0 mm 3 mps 755 mmHg 53%
    12:00 +34°C° 0 mm 3 mps 754 mmHg 50%
    13:00 +35°C° 0 mm 3 mps 754 mmHg 48%
    14:00 +35°C° 0 mm 3 mps 754 mmHg 48%
    15:00 +35°C° 0 mm 3 mps 753 mmHg 48%
    16:00 +35°C° 0 mm 3 mps 753 mmHg 48%
    17:00 +34°C° 0 mm 3 mps 753 mmHg 54%
    18:00 +31°C° 0 mm 3 mps 752 mmHg 61%
    19:00 +30°C° 0 mm 2 mps 752 mmHg 67%
    20:00 +29°C° 0 mm 3 mps 752 mmHg 69%
    21:00 +28°C° 0 mm 3 mps 752 mmHg 71%
    22:00 +27°C° 0 mm 3 mps 752 mmHg 72%
    23:00 +26°C° 0.6 mm 3 mps 752 mmHg 76%

    27 June, Thursday

    Time Temperature Precipitation Wind Pressure Humidity
    00:00 +25°C° 0.6 mm 3 mps 752 mmHg 80%
    01:00 +23°C° 0.6 mm 4 mps 752 mmHg 84%
    02:00 +23°C° 0.6 mm 4 mps 752 mmHg 88%
    03:00 +22°C° 0.6 mm 4 mps 752 mmHg 92%
    04:00 +22°C° 0.6 mm 4 mps 752 mmHg 96%
    05:00 +22°C° 0.1 mm 5 mps 752 mmHg 93%
    06:00 +22°C° 0.1 mm 5 mps 752 mmHg 89%
    07:00 +22°C° 0.1 mm 6 mps 753 mmHg 85%
    08:00 +22°C° 0 mm 6 mps 753 mmHg 81%
    09:00 +22°C° 0 mm 6 mps 753 mmHg 76%
    10:00 +22°C° 0 mm 7 mps 753 mmHg 72%
    11:00 +22°C° 0 mm 6 mps 753 mmHg 68%
    12:00 +23°C° 0 mm 6 mps 753 mmHg 65%
    13:00 +23°C° 0 mm 6 mps 753 mmHg 62%
    14:00 +23°C° 0 mm 6 mps 753 mmHg 61%
    15:00 +25°C° 0 mm 5 mps 753 mmHg 60%
    16:00 +25°C° 0 mm 5 mps 753 mmHg 59%
    17:00 +23°C° 0 mm 4 mps 753 mmHg 63%
    18:00 +22°C° 0 mm 3 mps 753 mmHg 68%
    19:00 +21°C° 0 mm 2 mps 753 mmHg 73%
    20:00 +20°C° 0 mm 2 mps 753 mmHg 76%
    21:00 +19°C° 0 mm 2 mps 753 mmHg 79%
    22:00 +19°C° 0 mm 1 mps 753 mmHg 82%
    23:00 +17°C° 0 mm 2 mps 753 mmHg 84%

    28 June, Friday

    Time Temperature Precipitation Wind Pressure Humidity
    00:00 +17°C° 0 mm 2 mps 753 mmHg 86%
    01:00 +16°C° 0 mm 2 mps 753 mmHg 88%
    02:00 +16°C° 0 mm 2 mps 753 mmHg 89%
    03:00 +16°C° 0 mm 3 mps 753 mmHg 90%
    04:00 +14°C° 0 mm 3 mps 752 mmHg 91%
    05:00 +16°C° 0 mm 3 mps 752 mmHg 85%
    06:00 +17°C° 0 mm 4 mps 752 mmHg 80%
    07:00 +19°C° 0 mm 5 mps 752 mmHg 74%
    08:00 +19°C° 0 mm 5 mps 752 mmHg 72%
    09:00 +20°C° 0 mm 5 mps 752 mmHg 71%
    10:00 +20°C° 0 mm 5 mps 752 mmHg 69%
    11:00 +21°C° 0 mm 5 mps 752 mmHg 65%
    12:00 +22°C° 0 mm 5 mps 752 mmHg 61%
    13:00 +23°C° 0 mm 5 mps 752 mmHg 57%
    14:00 +23°C° 0 mm 5 mps 752 mmHg 57%
    15:00 +25°C° 0 mm 5 mps 752 mmHg 57%
    16:00 +25°C° 0 mm 5 mps 752 mmHg 58%
    17:00 +23°C° 0.1 mm 4 mps 752 mmHg 64%
    18:00 +22°C° 0.1 mm 4 mps 752 mmHg 69%
    19:00 +21°C° 0.1 mm 4 mps 752 mmHg 75%
    20:00 +19°C° 0 mm 3 mps 753 mmHg 76%
    21:00 +18°C° 0 mm 3 mps 753 mmHg 76%
    22:00 +16°C° 0 mm 3 mps 753 mmHg 76%
    23:00 +15°C° 0 mm 2 mps 753 mmHg 77%

    29 June, Saturday

    Time Temperature Precipitation Wind Pressure Humidity
    00:00 +14°C° 0 mm 2 mps 754 mmHg 78%
    01:00 +13°C° 0 mm 1 mps 754 mmHg 79%
    02:00 +13°C° 0 mm 1 mps 754 mmHg 80%
    03:00 +12°C° 0 mm 1 mps 754 mmHg 80%
    04:00 +12°C° 0 mm 1 mps 753 mmHg 81%
    05:00 +14°C° 0 mm 1 mps 753 mmHg 74%
    06:00 +16°C° 0 mm 1 mps 754 mmHg 67%
    07:00 +18°C° 0 mm 2 mps 754 mmHg 61%
    08:00 +19°C° 0 mm 2 mps 754 mmHg 55%
    09:00 +22°C° 0 mm 1 mps 754 mmHg 50%
    10:00 +23°C° 0 mm 1 mps 754 mmHg 45%
    11:00 +24°C° 0 mm 2 mps 753 mmHg 44%
    12:00 +25°C° 0 mm 2 mps 753 mmHg 42%
    13:00 +26°C° 0 mm 2 mps 753 mmHg 41%
    14:00 +26°C° 0 mm 3 mps 752 mmHg 42%
    15:00 +26°C° 0 mm 3 mps 752 mmHg 44%
    16:00 +26°C° 0 mm 4 mps 752 mmHg 45%
    17:00 +25°C° 0 mm 3 mps 752 mmHg 52%
    18:00 +24°C° 0 mm 3 mps 752 mmHg 58%
    19:00 +23°C° 0 mm 2 mps 752 mmHg 64%
    20:00 +20°C° 0 mm 2 mps 752 mmHg 66%
    21:00 +18°C° 0 mm 2 mps 753 mmHg 67%
    22:00 +16°C° 0 mm 2 mps 753 mmHg 68%
    23:00 +15°C° 0 mm 2 mps 753 mmHg 67%
    Show more